Regional Weather Roundup
Issued by NWS

Home | Current Version | Previous Version | Text Only | Print | Product List | Glossary Off
Versions: 1 2 3 4 5 6 7 8 9 10 11 12 13 14 15 16 17 18 19 20 21 22 23 24 25 26 27 28 29 30 31 32 33 34 35 36 37 38 39 40 41 42 43 44 45 46 47 48 49 50

000
ASUS43 KDMX 290707
RWRIA

WEATHER ROUNDUP FOR IOWA
NATIONAL WEATHER SERVICE DES MOINES IA
200 AM CDT FRI MAY 29 2015

NOTE: "FAIR" INDICATES FEW OR NO CLOUDS BELOW 12,000 FEET WITH NO
SIGNIFICANT WEATHER AND/OR OBSTRUCTIONS TO VISIBILITY.

* - THESE STATIONS ARE NOT NWS STATIONS...THUS NOT UNDER NWS
QUALITY CONTROL.  THEY ALSO DO NOT REPORT WEATHER SUCH
AS PRECIPITATION OR FOG.

IAZ001>003-012>014-020>022-031>034-043>046-290800-
   NORTHWEST IOWA

CITY           SKY/WX    TMP DP  RH WIND       PRES   REMARKS
CARROLL *      MOCLDY    64  63  94 S15       29.92F
CHEROKEE *     CLOUDY    66  64  94 S10       29.89F
DENISON *      PTCLDY    66  66 100 S15G24    29.90S
LE MARS *      MOCLDY    66  64  94 S13       29.88F
ORANGE CITY *  CLEAR     64  61  88 S9        29.88F
SHELDON *      MOCLDY    64  64 100 S12       29.87F
SIOUX CITY     MOCLDY    67  62  84 SE7       29.88S
SPENCER        MOCLDY    65  62  90 S10       29.90F
STORM LAKE *   MOCLDY    64  63  94 S12       29.92F
$$

IAZ055>058-069>071-079>083-090>094-290800-
   SOUTHWEST IOWA

CITY           SKY/WX    TMP DP  RH WIND       PRES   REMARKS
ATLANTIC *     CLOUDY    64  64 100 S10       29.94F
AUDUBON *      PTCLDY    64  61  88 S8        29.95F
CLARINDA *     PTCLDY    64  64 100 S3        29.96F
COUNCIL BLFS * CLOUDY    64  64 100 S8        29.93F
CRESTON *      PTCLDY    63  63 100 S10       29.97F
HARLAN  *      CLOUDY    64  64 100 S9        29.96F
LAMONI         PTCLDY    67  63  87 S6        29.97F
RED OAK *      MOCLDY    66  64  94 S7G13     29.94F
SHENANDOAH *   MOCLDY    66  64  94 S8        29.96R
$$

IAZ047>049-059>061-072>074-084-290800-
   CENTRAL IOWA

CITY           SKY/WX    TMP DP  RH WIND       PRES   REMARKS
AMES           PTCLDY    61  60  97 S5        29.95F
ANKENY *       MOCLDY    64  64 100 S7        29.95S
CHARITON *       N/A     64  63  94 S9        29.98S
DES MOINES     PTCLDY    65  62  90 S7        29.95F
GRINNELL*      CLOUDY    64  63  94 S7        29.99S
KNOXVILLE *    CLOUDY    64  63  94 SE5       29.97S
MARSHALLTOWN   CLOUDY    65  62  90 SE8       29.96S
PELLA *        CLOUDY    64  64 100 SE5       29.99S
PERRY *          N/A     63  63 100 S7        29.95F
$$

IAZ004>006-015-016-023>025-035-036-290800-
   NORTH CENTRAL IOWA

CITY           SKY/WX    TMP DP  RH WIND       PRES   REMARKS
ALGONA *       CLOUDY    66  64  94 S13       29.92F
CLARION *      CLOUDY    66  63  88 S13       29.94S
ESTHERVILLE    CLOUDY    65  63  93 S13       29.90F
FORT DODGE *   CLOUDY    66  61  82 S12       29.94S
MASON CITY     CLOUDY    66  61  84 S9        29.95F
FOREST CITY *  CLOUDY    64  61  88 S10       29.93F
IOWA FALLS *   CLOUDY    64  63  94 S8        29.96F
$$

IAZ007>011-017>019-026>030-037>042-050>054-066-290800-
   NORTHEAST IOWA

CITY           SKY/WX    TMP DP  RH WIND       PRES   REMARKS
CEDAR RAPIDS   CLOUDY    65  63  93 S7        29.98F
CHARLES CITY * CLOUDY    66  64  94 S12       29.96S
CLINTON *      CLOUDY    66  59  77 CALM      30.03F
DECORAH *      CLOUDY    64  59  82 S6        29.97S
DUBUQUE        LGT RAIN  64  61  90 SW3       30.02S
MONTICELLO *   CLOUDY    66  66 100 SE5       30.00F
OELWEIN *      CLOUDY    64  63  94 S8        29.98F
WATERLOO       CLOUDY    65  62  90 S9        29.96F
$$

IAZ064-065-067-068-078-290800-
   EAST CENTRAL IOWA

CITY           SKY/WX    TMP DP  RH WIND       PRES   REMARKS
DAVENPORT      CLOUDY    67  61  81 SE5       30.01F
IOWA CITY      LGT RAIN  66  63  90 SE5       30.01S
MT. PLEASANT * RAIN      64  63  94 CALM      30.01R
MUSCATINE *    PTCLDY    66  63  88 CALM      30.01R
QUAD CITIES    CLOUDY    67  60  78 CALM      30.00F
$$

IAZ062-063-075>077-085>089-095>099-290800-
   SOUTHEAST IOWA

CITY           SKY/WX    TMP DP  RH WIND       PRES   REMARKS
BURLINGTON     CLOUDY    67  63  87 SE3       29.99F
FAIRFIELD *    CLOUDY    64  63  94 SE8       30.00S
FORT MADISON * CLEAR     66  63  88 SE6       30.01S
KEOKUK *       CLEAR     66  66 100 SE3       29.99S
OSKALOOSA *    LGT RAIN  64  63  94 S6        29.99F
CENTERVILLE *  PTCLDY    64  64 100 CALM      30.00S
OTTUMWA        CLOUDY    64  63  96 SE7       29.97F
WASHINGTON *   CLOUDY    64  63  94 S3        30.02R
$$

ABBREVIATIONS USED IN REMARKS
   TC - TEMPERATURES IN CELSIUS
  WCI - WIND CHILL INDEX
   HX - HEAT INDEX
  VSB - VISIBILITY
$$




USA.gov is the U.S. government's official web portal to all federal, state and local government web resources and services.